KUIPER-00057

导读

KUIPER-00057是美国亚马逊公司“柯伊伯计划”卫星互联网项目中的一颗卫星,于2025年6月23日发射入轨。该项目计划在近地轨道部署超3200颗卫星,旨在为全球提供高速可靠的宽带互联网服务,与SpaceX的“星链”项目形成商业竞争,KUIPER-00057的入轨将助力项目拓展全球网络覆盖与连接容量。

基本信息
目录编号:
64517
目录名称:
KUIPER-00057
国际标识:
2025-134T
轨道中心:
EARTH
卫星名称:
KUIPER-00057
卫星全名:
KUIPER-00057
卫星状态:
在轨 (已飞行354 天)
发射日期:
2025-06-23 UTC
国别 :
美国 (US)
星等 :
--
轨道信息
数据来源 国际轨道数据 AOE轨道数据
星历时间 2026-06-12T14:37:30+0800
13小时前
查看轨道信息
2026-06-10T06:00:00+0800
2天前
查看轨道信息
半长轴 7007.692km 7007.675km
偏心率 0.0000583 0.0000806
轨道倾角 51.899° 51.895°
近地点辐角 76.398° 84.895°
升交点赤经 172.314° 182.746°
平近点角 283.704° 297.476°
近地点 629.146km 628.973km
远地点 629.964km 630.103km
周期 97.302分钟 97.302分钟
每日圈数 14.799271 14.799325
详细信息
使用方式:
暂无
2D轨道图
3D轨道图
轨道高度分析图
轨道倾角分析图
轨道综合分析图
查看轨道综合分析图